| time (UTC) | temp F | wind direction | speed MPH | gust MPH | rain 1hr in | rain 24hr in | rain mn in | humidity % | barometer mb |
| 20260504050721 | 46 | 150 | 1.0 | 1.0 | 0.00 | 0.00 | 0.00 | 66 | 1012.5 |
| 20260504050218 | 46 | 150 | 0.0 | 1.0 | 0.00 | 0.00 | 0.00 | 71 | 1012.3 |
| 20260504045715 | 47 | 149 | 0.0 | 1.0 | 0.00 | 0.00 | 0.00 | 69 | 1012.4 |
| 20260504045215 | 48 | 144 | 2.0 | 2.0 | 0.00 | 0.00 | 0.00 | 66 | 1012.3 |
| 20260504044713 | 48 | 149 | 0.0 | 1.0 | 0.00 | 0.00 | 0.00 | 56 | 1012.2 |
| 20260504044210 | 48 | 147 | 0.0 | 0.0 | 0.00 | 0.00 | 0.00 | 55 | 1012.2 |
| 20260504043707 | 48 | 146 | 0.0 | 2.0 | 0.00 | 0.00 | 0.00 | 59 | 1012.2 |
| 20260504043204 | 47 | 147 | 0.0 | 0.0 | 0.00 | 0.00 | 0.00 | 60 | 1012.3 |
| 20260504042702 | 47 | 151 | 0.0 | 0.0 | 0.00 | 0.00 | 0.00 | 60 | 1012.0 |
| 20260504042158 | 46 | 145 | 0.0 | 0.0 | 0.00 | 0.00 | 0.00 | 62 | 1012.3 |
| 20260504041654 | 46 | 148 | 0.0 | 0.0 | 0.00 | 0.00 | 0.00 | 65 | 1012.2 |
| 20260504041150 | 46 | 149 | 0.0 | 0.0 | 0.00 | 0.00 | 0.00 | 64 | 1012.3 |
| 20260504040647 | 47 | 151 | 0.0 | 0.0 | 0.00 | 0.00 | 0.00 | 65 | 1012.5 |
| 20260504040144 | 47 | 154 | 1.0 | 1.0 | 0.00 | 0.00 | 0.00 | 62 | 1012.4 |
| 20260504035641 | 47 | 147 | 0.0 | 1.0 | 0.00 | 0.00 | 0.00 | 60 | 1012.2 |
| 20260504035137 | 47 | 118 | 2.0 | 2.0 | 0.00 | 0.00 | 0.00 | 60 | 1012.3 |
| 20260504034635 | 47 | 152 | 1.0 | 1.0 | 0.00 | 0.00 | 0.00 | 59 | 1012.1 |
| 20260504034132 | 47 | 158 | 0.0 | 0.0 | 0.00 | 0.00 | 0.00 | 60 | 1012.4 |
| 20260504033629 | 46 | 153 | 0.0 | 0.0 | 0.00 | 0.00 | 0.00 | 59 | 1012.3 |
| 20260504033127 | 46 | 153 | 0.0 | 0.0 | 0.00 | 0.00 | 0.00 | 60 | 1012.4 |
| 20260504032624 | 46 | 153 | 0.0 | 0.0 | 0.00 | 0.00 | 0.00 | 61 | 1012.6 |
| 20260504032121 | 46 | 148 | 0.0 | 0.0 | 0.00 | 0.00 | 0.00 | 60 | 1012.2 |
| 20260504031618 | 47 | 149 | 0.0 | 0.0 | 0.00 | 0.00 | 0.00 | 58 | 1012.3 |
| 20260504031114 | 48 | 139 | 0.0 | 0.0 | 0.00 | 0.00 | 0.00 | 60 | 1012.2 |
| 20260504030611 | 48 | 147 | 1.0 | 2.0 | 0.00 | 0.00 | 0.00 | 59 | 1012.3 |
| 20260504030108 | 47 | 154 | 1.0 | 2.0 | 0.00 | 0.00 | 0.00 | 58 | 1012.1 |
| 20260504025604 | 48 | 151 | 0.0 | 0.0 | 0.00 | 0.00 | 0.00 | 60 | 1012.3 |
| 20260504025101 | 48 | 148 | 0.0 | 0.0 | 0.00 | 0.00 | 0.00 | 57 | 1012.3 |
| 20260504024558 | 48 | 147 | 0.0 | 0.0 | 0.00 | 0.00 | 0.00 | 51 | 1012.2 |
| 20260504024055 | 48 | 149 | 0.0 | 1.0 | 0.00 | 0.00 | 0.00 | 51 | 1012.1 |
| 20260504023552 | 48 | 151 | 1.0 | 1.0 | 0.00 | 0.00 | 0.00 | 52 | 1012.1 |
| 20260504023048 | 47 | 149 | 2.0 | 2.0 | 0.00 | 0.00 | 0.00 | 54 | 1012.1 |
| 20260504022544 | 48 | 153 | 0.0 | 0.0 | 0.00 | 0.00 | 0.00 | 57 | 1012.3 |
| 20260504022040 | 48 | 148 | 0.0 | 0.0 | 0.00 | 0.00 | 0.00 | 54 | 1012.1 |
| 20260504021538 | 48 | 147 | 0.0 | 0.0 | 0.00 | 0.00 | 0.00 | 55 | 1012.2 |
| 20260504021034 | 48 | 148 | 0.0 | 0.0 | 0.00 | 0.00 | 0.00 | 53 | 1012.2 |
| 20260504020531 | 48 | 145 | 0.0 | 0.0 | 0.00 | 0.00 | 0.00 | 50 | 1011.9 |
| 20260504020028 | 48 | 147 | 0.0 | 0.0 | 0.00 | 0.00 | 0.00 | 47 | 1011.9 |
| 20260504015524 | 48 | 149 | 0.0 | 0.0 | 0.00 | 0.00 | 0.00 | 50 | 1012.0 |
| 20260504015020 | 49 | 147 | 0.0 | 1.0 | 0.00 | 0.00 | 0.00 | 49 | 1011.8 |
| 20260504014517 | 49 | 146 | 0.0 | 0.0 | 0.00 | 0.00 | 0.00 | 48 | 1011.8 |
| 20260504014014 | 50 | 145 | 0.0 | 0.0 | 0.00 | 0.00 | 0.00 | 46 | 1011.8 |
| 20260504013512 | 50 | 143 | 0.0 | 0.0 | 0.00 | 0.00 | 0.00 | 46 | 1011.7 |
| 20260504013009 | 50 | 144 | 0.0 | 1.0 | 0.00 | 0.00 | 0.00 | 45 | 1011.6 |
| 20260504012506 | 50 | 145 | 0.0 | 1.0 | 0.00 | 0.00 | 0.00 | 47 | 1011.5 |
| 20260504012004 | 51 | 143 | 0.0 | 0.0 | 0.00 | 0.00 | 0.00 | 46 | 1011.5 |
| 20260504011500 | 52 | 144 | 0.0 | 0.0 | 0.00 | 0.00 | 0.00 | 45 | 1011.3 |
| 20260504010955 | 53 | 145 | 0.0 | 0.0 | 0.00 | 0.00 | 0.00 | 42 | 1011.4 |
| 20260504010452 | 55 | 141 | 0.0 | 1.0 | 0.00 | 0.00 | 0.00 | 38 | 1011.4 |
| 20260504005948 | 56 | 138 | 1.0 | 3.0 | 0.00 | 0.00 | 0.00 | 32 | 1011.3 |
| 20260504005445 | 56 | 136 | 1.0 | 4.0 | 0.00 | 0.00 | 0.00 | 32 | 1011.2 |
| 20260504004943 | 56 | 144 | 3.0 | 3.0 | 0.00 | 0.00 | 0.00 | 31 | 1011.2 |
| 20260504004440 | 56 | 124 | 2.0 | 3.0 | 0.00 | 0.00 | 0.00 | 32 | 1011.1 |
| 20260504003937 | 56 | 151 | 2.0 | 3.0 | 0.00 | 0.00 | 0.00 | 32 | 1011.1 |
| 20260504003433 | 56 | 137 | 3.0 | 3.0 | 0.00 | 0.00 | 0.00 | 31 | 1011.1 |
| 20260504002930 | 57 | 147 | 1.0 | 3.0 | 0.00 | 0.00 | 0.00 | 31 | 1011.0 |
| 20260504002427 | 57 | 138 | 3.0 | 3.0 | 0.00 | 0.00 | 0.00 | 30 | 1011.1 |
| 20260504001924 | 57 | 135 | 2.0 | 2.0 | 0.00 | 0.00 | 0.00 | 31 | 1011.0 |
| 20260504001422 | 58 | 144 | 1.0 | 2.0 | 0.00 | 0.00 | 0.00 | 31 | 1011.0 |
| 20260504000918 | 59 | 139 | 1.0 | 2.0 | 0.00 | 0.00 | 0.00 | 30 | 1011.1 |
| 20260504000416 | 60 | 144 | 0.0 | 1.0 | 0.00 | 0.00 | 0.00 | 29 | 1011.1 |
| 20260503235913 | 61 | 126 | 2.0 | 3.0 | 0.00 | 0.00 | 0.00 | 26 | 1011.2 |
| 20260503235410 | 62 | 133 | 0.0 | 1.0 | 0.00 | 0.00 | 0.00 | 27 | 1010.9 |
| 20260503234908 | 63 | 140 | 1.0 | 3.0 | 0.00 | 0.00 | 0.00 | 25 | 1011.0 |
| 20260503234405 | 64 | 146 | 0.0 | 1.0 | 0.00 | 0.00 | 0.00 | 26 | 1011.0 |
| 20260503233903 | 63 | 148 | 1.0 | 2.0 | 0.00 | 0.00 | 0.00 | 25 | 1011.1 |
| 20260503233359 | 64 | 119 | 2.0 | 4.0 | 0.00 | 0.00 | 0.00 | 24 | 1011.1 |
| 20260503232855 | 64 | 150 | 1.0 | 2.0 | 0.00 | 0.00 | 0.00 | 24 | 1011.1 |
| 20260503232353 | 66 | 134 | 1.0 | 2.0 | 0.00 | 0.00 | 0.00 | 23 | 1011.0 |
| 20260503231850 | 65 | 155 | 0.0 | 1.0 | 0.00 | 0.00 | 0.00 | 24 | 1010.9 |
| 20260503231347 | 65 | 11 | 2.0 | 3.0 | 0.00 | 0.00 | 0.00 | 24 | 1010.9 |
| 20260503230843 | 65 | 136 | 2.0 | 3.0 | 0.00 | 0.00 | 0.00 | 22 | 1010.8 |
| 20260503230340 | 64 | 62 | 2.0 | 3.0 | 0.00 | 0.00 | 0.00 | 23 | 1010.8 |
| 20260503225838 | 65 | 127 | 1.0 | 6.0 | 0.00 | 0.00 | 0.00 | 23 | 1011.0 |
| 20260503225334 | 63 | 116 | 1.0 | 2.0 | 0.00 | 0.00 | 0.00 | 26 | 1010.9 |
| 20260503224830 | 63 | 135 | 3.0 | 7.0 | 0.00 | 0.00 | 0.00 | 24 | 1010.8 |
| 20260503224328 | 63 | 122 | 7.0 | 9.0 | 0.00 | 0.00 | 0.00 | 23 | 1010.8 |
| 20260503223825 | 64 | 15 | 5.0 | 6.0 | 0.00 | 0.00 | 0.00 | 24 | 1010.5 |
| 20260503223323 | 65 | 331 | 6.0 | 7.0 | 0.00 | 0.00 | 0.00 | 23 | 1010.9 |
| 20260503222818 | 64 | 33 | 2.0 | 3.0 | 0.00 | 0.00 | 0.00 | 24 | 1010.7 |
| 20260503222317 | 64 | 52 | 2.0 | 4.0 | 0.00 | 0.00 | 0.00 | 23 | 1010.5 |
| 20260503221815 | 63 | 95 | 1.0 | 4.0 | 0.00 | 0.00 | 0.00 | 23 | 1010.7 |
| 20260503221313 | 63 | 20 | 4.0 | 8.0 | 0.00 | 0.00 | 0.00 | 24 | 1010.8 |
| 20260503220809 | 63 | 247 | 4.0 | 11.0 | 0.00 | 0.00 | 0.00 | 24 | 1010.5 |
| 20260503220306 | 64 | 72 | 2.0 | 4.0 | 0.00 | 0.00 | 0.00 | 25 | 1010.9 |
| 20260503215802 | 63 | 187 | 5.0 | 7.0 | 0.00 | 0.00 | 0.00 | 23 | 1010.9 |
| 20260503215259 | 62 | 71 | 3.0 | 10.0 | 0.00 | 0.00 | 0.00 | 23 | 1011.0 |
| 20260503214757 | 63 | 306 | 8.0 | 14.0 | 0.00 | 0.00 | 0.00 | 23 | 1010.7 |
| 20260503214254 | 64 | 26 | 4.0 | 7.0 | 0.00 | 0.00 | 0.00 | 23 | 1010.9 |
| 20260503213752 | 64 | 6 | 9.0 | 14.0 | 0.00 | 0.00 | 0.00 | 23 | 1010.9 |
| 20260503213249 | 63 | 315 | 3.0 | 7.0 | 0.00 | 0.00 | 0.00 | 23 | 1010.8 |
| 20260503212746 | 63 | 1 | 3.0 | 9.0 | 0.00 | 0.00 | 0.00 | 23 | 1010.9 |
| 20260503212244 | 63 | 25 | 8.0 | 11.0 | 0.00 | 0.00 | 0.00 | 22 | 1011.0 |
| 20260503211741 | 64 | 296 | 11.0 | 15.0 | 0.00 | 0.00 | 0.00 | 24 | 1011.0 |
| 20260503211237 | 63 | 292 | 7.0 | 10.0 | 0.00 | 0.00 | 0.00 | 24 | 1011.1 |
| 20260503210732 | 63 | 80 | 3.0 | 9.0 | 0.00 | 0.00 | 0.00 | 23 | 1010.9 |
| 20260503210230 | 63 | 124 | 2.0 | 6.0 | 0.00 | 0.00 | 0.00 | 23 | 1010.9 |
| 20260503205725 | 62 | 9 | 9.0 | 11.0 | 0.00 | 0.00 | 0.00 | 24 | 1011.1 |
| 20260503205222 | 62 | 3 | 9.0 | 14.0 | 0.00 | 0.00 | 0.00 | 26 | 1011.1 |
| 20260503204718 | 62 | 312 | 8.0 | 13.0 | 0.00 | 0.00 | 0.00 | 23 | 1011.1 |
| 20260503204216 | 62 | 327 | 8.0 | 13.0 | 0.00 | 0.00 | 0.00 | 23 | 1011.2 |
| 20260503203713 | 63 | 123 | 6.0 | 8.0 | 0.00 | 0.00 | 0.00 | 25 | 1011.1 |
| 20260503203211 | 62 | 337 | 5.0 | 7.0 | 0.00 | 0.00 | 0.00 | 26 | 1011.3 |
| 20260503202708 | 62 | 359 | 5.0 | 11.0 | 0.00 | 0.00 | 0.00 | 23 | 1011.4 |
| 20260503202206 | 62 | 140 | 2.0 | 8.0 | 0.00 | 0.00 | 0.00 | 23 | 1011.4 |
| 20260503201703 | 61 | 330 | 3.0 | 4.0 | 0.00 | 0.00 | 0.00 | 24 | 1011.3 |
| 20260503201200 | 60 | 97 | 3.0 | 4.0 | 0.00 | 0.00 | 0.00 | 27 | 1011.6 |
| 20260503200656 | 62 | 9 | 10.0 | 13.0 | 0.00 | 0.00 | 0.00 | 24 | 1011.7 |
| 20260503200153 | 60 | 156 | 0.0 | 2.0 | 0.00 | 0.00 | 0.00 | 25 | 1011.7 |
| 20260503195650 | 61 | 280 | 6.0 | 9.0 | 0.00 | 0.00 | 0.00 | 28 | 1011.8 |
| 20260503195147 | 62 | 330 | 9.0 | 10.0 | 0.00 | 0.00 | 0.00 | 24 | 1011.9 |
| 20260503194644 | 61 | 345 | 7.0 | 8.0 | 0.00 | 0.00 | 0.00 | 25 | 1012.0 |
| 20260503194139 | 61 | 156 | 4.0 | 13.0 | 0.00 | 0.00 | 0.00 | 25 | 1012.0 |
| 20260503193637 | 59 | 18 | 10.0 | 13.0 | 0.00 | 0.00 | 0.00 | 28 | 1012.0 |
| 20260503193132 | 59 | 157 | 9.0 | 19.0 | 0.00 | 0.00 | 0.00 | 25 | 1011.9 |
| 20260503192628 | 60 | 346 | 9.0 | 14.0 | 0.00 | 0.00 | 0.00 | 26 | 1012.1 |
| 20260503192124 | 59 | 326 | 12.0 | 16.0 | 0.00 | 0.00 | 0.00 | 25 | 1012.3 |
| 20260503191621 | 60 | 295 | 11.0 | 18.0 | 0.00 | 0.00 | 0.00 | 25 | 1012.4 |
| 20260503191118 | 60 | 30 | 11.0 | 15.0 | 0.00 | 0.00 | 0.00 | 25 | 1012.3 |
| 20260503190615 | 61 | 84 | 1.0 | 7.0 | 0.00 | 0.00 | 0.00 | 26 | 1012.5 |
| 20260503190112 | 60 | 341 | 5.0 | 14.0 | 0.00 | 0.00 | 0.00 | 28 | 1012.4 |
| 20260503185608 | 58 | 117 | 2.0 | 7.0 | 0.00 | 0.00 | 0.00 | 28 | 1012.5 |
| 20260503185108 | 58 | 21 | 5.0 | 8.0 | 0.00 | 0.00 | 0.00 | 27 | 1012.7 |
| 20260503184604 | 59 | 45 | 7.0 | 14.0 | 0.00 | 0.00 | 0.00 | 28 | 1012.8 |
| 20260503184100 | 59 | 318 | 5.0 | 9.0 | 0.00 | 0.00 | 0.00 | 26 | 1012.8 |
| 20260503183557 | 58 | 306 | 6.0 | 9.0 | 0.00 | 0.00 | 0.00 | 28 | 1012.8 |
| 20260503183054 | 58 | 335 | 5.0 | 10.0 | 0.00 | 0.00 | 0.00 | 28 | 1013.0 |
| 20260503182553 | 58 | 308 | 15.0 | 17.0 | 0.00 | 0.00 | 0.00 | 29 | 1013.1 |
| 20260503182050 | 59 | 327 | 9.0 | 13.0 | 0.00 | 0.00 | 0.00 | 30 | 1012.9 |
| 20260503181547 | 59 | 103 | 4.0 | 6.0 | 0.00 | 0.00 | 0.00 | 31 | 1012.9 |
| 20260503181043 | 57 | 149 | 1.0 | 4.0 | 0.00 | 0.00 | 0.00 | 30 | 1012.9 |
| 20260503180541 | 57 | 318 | 5.0 | 8.0 | 0.00 | 0.00 | 0.00 | 30 | 1013.0 |
| 20260503180038 | 57 | 335 | 6.0 | 11.0 | 0.00 | 0.00 | 0.00 | 30 | 1013.1 |
| 20260503175535 | 57 | 9 | 6.0 | 10.0 | 0.00 | 0.00 | 0.00 | 31 | 1013.1 |
| 20260503175033 | 56 | 306 | 6.0 | 11.0 | 0.00 | 0.00 | 0.00 | 33 | 1013.0 |
| 20260503174530 | 57 | 128 | 7.0 | 17.0 | 0.00 | 0.00 | 0.00 | 30 | 1013.2 |
| 20260503174026 | 57 | 333 | 3.0 | 7.0 | 0.00 | 0.00 | 0.00 | 32 | 1013.0 |
| 20260503173521 | 57 | 61 | 7.0 | 10.0 | 0.00 | 0.00 | 0.00 | 30 | 1013.2 |
| 20260503173017 | 56 | 111 | 2.0 | 6.0 | 0.00 | 0.00 | 0.00 | 31 | 1013.3 |
| 20260503172515 | 55 | 320 | 10.0 | 14.0 | 0.00 | 0.00 | 0.00 | 32 | 1013.2 |
| 20260503172012 | 56 | 158 | 3.0 | 13.0 | 0.00 | 0.00 | 0.00 | 31 | 1013.3 |
| 20260503171509 | 54 | 165 | 2.0 | 11.0 | 0.00 | 0.00 | 0.00 | 32 | 1013.3 |
| 20260503171006 | 55 | 120 | 6.0 | 11.0 | 0.00 | 0.00 | 0.00 | 32 | 1013.5 |
| 20260503170502 | 55 | 322 | 11.0 | 14.0 | 0.00 | 0.00 | 0.00 | 32 | 1013.6 |
| 20260503150855 | 50 | 106 | 2.0 | 7.0 | 0.00 | 0.00 | 0.00 | 38 | 1014.8 |
| 20260503150351 | 49 | 206 | 4.0 | 9.0 | 0.00 | 0.00 | 0.00 | 38 | 1014.6 |
| 20260503140315 | 48 | 341 | 2.0 | 3.0 | 0.00 | 0.00 | 0.00 | 42 | 1014.7 |
| 20260503131244 | 45 | 357 | 9.0 | 13.0 | 0.00 | 0.00 | 0.00 | 48 | 1014.8 |
| 20260503130742 | 44 | 29 | 6.0 | 9.0 | 0.00 | 0.00 | 0.00 | 48 | 1014.6 |
| 20260503130239 | 45 | 342 | 7.0 | 8.0 | 0.00 | 0.00 | 0.00 | 48 | 1014.9 |
| 20260503120205 | 42 | 111 | 2.0 | 8.0 | 0.00 | 0.00 | 0.00 | 55 | 1014.7 |
| 20260503110632 | 39 | 148 | 1.0 | 2.0 | 0.00 | 0.00 | 0.00 | 60 | 1013.9 |
| 20260503110130 | 38 | 140 | 1.0 | 1.0 | 0.00 | 0.00 | 0.00 | 63 | 1014.0 |
| 20260503081446 | 41 | 139 | 1.0 | 2.0 | 0.00 | 0.00 | 0.00 | 63 | 1012.2 |
| 20260503080943 | 41 | 157 | 1.0 | 2.0 | 0.00 | 0.00 | 0.00 | 63 | 1012.2 |
| 20260503080439 | 41 | 130 | 1.0 | 2.0 | 0.00 | 0.00 | 0.00 | 63 | 1011.9 |
| 20260503072916 | 41 | 75 | 2.0 | 2.0 | 0.00 | 0.00 | 0.00 | 63 | 1011.9 |
| 20260503072413 | 41 | 130 | 1.0 | 1.0 | 0.00 | 0.00 | 0.00 | 63 | 1011.9 |
| 20260503071910 | 41 | 138 | 0.0 | 1.0 | 0.00 | 0.00 | 0.00 | 63 | 1011.8 |
| 20260503071407 | 41 | 150 | 0.0 | 1.0 | 0.00 | 0.00 | 0.00 | 62 | 1011.7 |
| 20260503070903 | 42 | 119 | 0.0 | 1.0 | 0.00 | 0.00 | 0.00 | 61 | 1011.8 |
| 20260503070400 | 42 | 127 | 2.0 | 7.0 | 0.00 | 0.00 | 0.00 | 60 | 1011.7 |